Location: Arcizac
(43.0933°N, 0.0112°E)
Time: 03:29:45
(UTC+00:00)

YAOGAN 6 - Pass Details

Date: 14 December 2019
Orbit: 466 x 505 km, 97.0° (Epoch: 27 January)

Event Time Altitude Azimuth Distance (km) Brightness Sun altitude
Rises 17:35:16 0° 147° (SSE) 2,519 6.1 -12.3°
Reaches altitude 10° 17:37:25 10° 138° (SE) 1,652 5.0 -12.7°
Maximum altitude 17:40:40 35° 72° (ENE) 807 3.1 -13.2°
Drops below altitude 10° 17:43:59 10° 6° (N) 1,686 5.1 -13.8°
Sets 17:46:11 0° 357° (N) 2,580 6.1 -14.2°
